| time (UTC) | temp F | wind direction | speed MPH | gust MPH | rain 1hr in | rain 24hr in | rain mn in | humidity % | barometer mb |
| 20260902040010 | 56 | 349 | 17.0 | 40.0 | 0.00 | 0.00 | 0.00 | 84 | 1013.6 |
| 20260902034520 | 56 | 336 | 24.0 | 36.0 | 0.00 | 0.00 | 0.00 | 83 | 1013.5 |
| 20260902033010 | 56 | 310 | 21.0 | 39.0 | 0.00 | 0.00 | 0.00 | 83 | 1013.5 |
| 20260902031513 | 56 | 2 | 23.0 | 49.0 | 0.00 | 0.00 | 0.00 | 82 | 1013.3 |
| 20260902030007 | 56 | 16 | 21.0 | 36.0 | 0.00 | 0.00 | 0.00 | 82 | 1013.5 |
| 20260902024509 | 57 | 351 | 18.0 | 31.0 | 0.00 | 0.00 | 0.00 | 81 | 1013.7 |
| 20260902023007 | 57 | 22 | 15.0 | 23.0 | 0.00 | 0.00 | 0.00 | 82 | 1013.8 |
| 20260902021506 | 57 | 34 | 18.0 | 25.0 | 0.00 | 0.00 | 0.00 | 81 | 1013.7 |
| 20260902020004 | 57 | 330 | 18.0 | 29.0 | 0.00 | 0.00 | 0.00 | 81 | 1014.1 |
| 20260902014534 | 56 | 19 | 19.0 | 36.0 | 0.00 | 0.00 | 0.00 | 80 | 1014.3 |
| 20260902013025 | 57 | 3 | 19.0 | 28.0 | 0.00 | 0.00 | 0.00 | 78 | 1014.3 |
| 20260902011525 | 57 | 359 | 18.0 | 27.0 | 0.00 | 0.00 | 0.00 | 68 | 1014.5 |
| 20260902010032 | 57 | 12 | 20.0 | 28.0 | 0.00 | 0.00 | 0.00 | 68 | 1014.5 |
| 20260902004518 | 57 | 11 | 16.0 | 25.0 | 0.00 | 0.00 | 0.00 | 68 | 1014.5 |
| 20260902003058 | 58 | 5 | 20.0 | 33.0 | 0.00 | 0.00 | 0.00 | 69 | 1014.5 |
| 20260902001553 | 58 | 25 | 20.0 | 27.0 | 0.00 | 0.00 | 0.00 | 68 | 1014.5 |
| 20260902000047 | 58 | 360 | 18.0 | 29.0 | 0.00 | 0.00 | 0.00 | 71 | 1014.6 |
| 20260901234549 | 58 | 24 | 19.0 | 29.0 | 0.00 | 0.00 | 0.00 | 74 | 1014.5 |
| 20260901233023 | 58 | 34 | 19.0 | 24.0 | 0.00 | 0.00 | 0.00 | 75 | 1014.7 |
| 20260901230019 | 58 | 22 | 12.0 | 22.0 | 0.00 | 0.00 | 0.00 | 73 | 1014.7 |
| 20260901224525 | 57 | 36 | 16.0 | 23.0 | 0.00 | 0.00 | 0.00 | 70 | 1014.8 |
| 20260901223018 | 57 | 355 | 13.0 | 22.0 | 0.00 | 0.00 | 0.00 | 70 | 1014.7 |
| 20260901220108 | 57 | 9 | 11.0 | 24.0 | 0.00 | 0.00 | 0.00 | 66 | 1014.9 |
| 20260901214530 | 57 | 12 | 12.0 | 23.0 | 0.00 | 0.00 | 0.00 | 68 | 1014.8 |
| 20260901213032 | 57 | 356 | 14.0 | 21.0 | 0.00 | 0.00 | 0.00 | 70 | 1014.8 |
| 20260901211536 | 57 | 48 | 12.0 | 21.0 | 0.00 | 0.00 | 0.00 | 69 | 1014.8 |
| 20260901210027 | 57 | 7 | 12.0 | 22.0 | 0.00 | 0.00 | 0.00 | 69 | 1014.8 |
| 20260901204524 | 57 | 39 | 14.0 | 21.0 | 0.00 | 0.00 | 0.00 | 72 | 1014.8 |
| 20260901203042 | 57 | 345 | 14.0 | 22.0 | 0.00 | 0.00 | 0.00 | 74 | 1014.6 |
| 20260901201539 | 56 | 355 | 12.0 | 23.0 | 0.00 | 0.00 | 0.00 | 74 | 1014.7 |
| 20260901200032 | 56 | 17 | 13.0 | 27.0 | 0.00 | 0.00 | 0.00 | 73 | 1014.6 |
| 20260901194537 | 56 | 358 | 15.0 | 23.0 | 0.00 | 0.00 | 0.00 | 72 | 1014.2 |
| 20260901193027 | 55 | 11 | 12.0 | 20.0 | 0.00 | 0.00 | 0.00 | 73 | 1014.1 |
| 20260901191527 | 54 | 38 | 15.0 | 23.0 | 0.00 | 0.00 | 0.00 | 72 | 1013.7 |
| 20260901190026 | 54 | 359 | 10.0 | 19.0 | 0.00 | 0.00 | 0.00 | 73 | 1014.1 |
| 20260901184524 | 54 | 17 | 11.0 | 20.0 | 0.00 | 0.00 | 0.00 | 73 | 1014.0 |
| 20260901183028 | 54 | 18 | 9.0 | 19.0 | 0.00 | 0.00 | 0.00 | 73 | 1013.9 |
| 20260901181533 | 54 | 20 | 11.0 | 24.0 | 0.00 | 0.00 | 0.00 | 74 | 1013.9 |
| 20260901180022 | 54 | 16 | 11.0 | 16.0 | 0.00 | 0.00 | 0.00 | 75 | 1013.6 |
| 20260901174521 | 54 | 33 | 11.0 | 18.0 | 0.00 | 0.00 | 0.00 | 75 | 1013.6 |
| 20260901173019 | 54 | 45 | 10.0 | 21.0 | 0.00 | 0.00 | 0.00 | 75 | 1013.5 |
| 20260901171520 | 54 | 17 | 10.0 | 18.0 | 0.00 | 0.00 | 0.00 | 75 | 1013.3 |
| 20260901170051 | 53 | 42 | 7.0 | 13.0 | 0.00 | 0.00 | 0.00 | 77 | 1013.3 |
| 20260901164517 | 53 | 58 | 6.0 | 13.0 | 0.00 | 0.00 | 0.00 | 75 | 1013.2 |
| 20260901163029 | 53 | 136 | 4.0 | 11.0 | 0.00 | 0.00 | 0.00 | 76 | 1013.5 |
| 20260901161515 | 53 | 22 | 5.0 | 14.0 | 0.00 | 0.00 | 0.00 | 75 | 1013.5 |
| 20260901160015 | 53 | 24 | 5.0 | 12.0 | 0.00 | 0.00 | 0.00 | 77 | 1013.3 |
| 20260901154512 | 54 | 35 | 9.0 | 17.0 | 0.00 | 0.00 | 0.00 | 74 | 1013.3 |
| 20260901153007 | 54 | 25 | 8.0 | 12.0 | 0.00 | 0.00 | 0.00 | 73 | 1013.5 |
| 20260901151548 | 54 | 5 | 12.0 | 21.0 | 0.00 | 0.00 | 0.00 | 71 | 1013.4 |
| 20260901150058 | 54 | 40 | 15.0 | 26.0 | 0.00 | 0.00 | 0.00 | 70 | 1013.3 |
| 20260901144544 | 54 | 10 | 16.0 | 30.0 | 0.00 | 0.00 | 0.00 | 73 | 1013.2 |
| 20260901141536 | 55 | 336 | 14.0 | 26.0 | 0.00 | 0.00 | 0.00 | 75 | 1012.9 |
| 20260901140039 | 55 | 8 | 13.0 | 22.0 | 0.00 | 0.00 | 0.00 | 75 | 1012.8 |
| 20260901134538 | 55 | 346 | 13.0 | 23.0 | 0.00 | 0.00 | 0.00 | 75 | 1013.1 |
| 20260901131522 | 55 | 323 | 8.0 | 17.0 | 0.00 | 0.00 | 0.00 | 74 | 1012.9 |
| 20260901130012 | 55 | 326 | 12.0 | 18.0 | 0.00 | 0.00 | 0.00 | 73 | 1013.0 |
| 20260901124559 | 54 | 29 | 7.0 | 11.0 | 0.00 | 0.00 | 0.00 | 73 | 1012.8 |
| 20260901121600 | 55 | 353 | 8.0 | 17.0 | 0.00 | 0.00 | 0.00 | 71 | 1012.8 |
| 20260901120043 | 54 | 358 | 10.0 | 18.0 | 0.00 | 0.00 | 0.00 | 71 | 1012.7 |
| 20260901114543 | 54 | 9 | 7.0 | 15.0 | 0.00 | 0.00 | 0.00 | 72 | 1013.0 |
| 20260901111502 | 54 | 63 | 6.0 | 13.0 | 0.00 | 0.00 | 0.00 | 70 | 1012.9 |
| 20260901104558 | 54 | 7 | 11.0 | 18.0 | 0.00 | 0.00 | 0.00 | 70 | 1013.1 |
| 20260901103057 | 54 | 60 | 10.0 | 17.0 | 0.00 | 0.00 | 0.00 | 70 | 1013.0 |
| 20260901101552 | 54 | 356 | 16.0 | 29.0 | 0.00 | 0.00 | 0.00 | 70 | 1012.9 |
| 20260901100051 | 54 | 23 | 14.0 | 29.0 | 0.00 | 0.00 | 0.00 | 69 | 1012.9 |
| 20260901093007 | 54 | 23 | 19.0 | 29.0 | 0.00 | 0.00 | 0.00 | 69 | 1012.9 |
| 20260901091507 | 54 | 20 | 15.0 | 27.0 | 0.00 | 0.00 | 0.00 | 69 | 1012.7 |
| 20260901090008 | 54 | 360 | 18.0 | 27.0 | 0.00 | 0.00 | 0.00 | 66 | 1012.8 |
| 20260901083005 | 54 | 15 | 17.0 | 26.0 | 0.00 | 0.00 | 0.00 | 68 | 1013.1 |
| 20260901081504 | 54 | 352 | 17.0 | 27.0 | 0.00 | 0.00 | 0.00 | 68 | 1012.8 |
| 20260901080004 | 54 | 346 | 17.0 | 27.0 | 0.00 | 0.00 | 0.00 | 69 | 1012.6 |
| 20260901073002 | 54 | 357 | 13.0 | 24.0 | 0.00 | 0.00 | 0.00 | 67 | 1012.6 |
| 20260901071502 | 54 | 9 | 16.0 | 27.0 | 0.00 | 0.00 | 0.00 | 67 | 1012.6 |
| 20260901070001 | 54 | 14 | 15.0 | 29.0 | 0.00 | 0.00 | 0.00 | 68 | 1012.5 |
| 20260901063001 | 54 | 2 | 15.0 | 26.0 | 0.00 | 0.00 | 0.00 | 67 | 1012.3 |
| 20260901061607 | 54 | 344 | 13.0 | 27.0 | 0.00 | 0.00 | 0.00 | 67 | 1012.1 |
| 20260901060059 | 54 | 327 | 11.0 | 21.0 | 0.00 | 0.00 | 0.00 | 67 | 1012.2 |
| 20260901054700 | 55 | 29 | 11.0 | 24.0 | 0.00 | 0.00 | 0.00 | 67 | 1012.1 |
| 20260901051526 | 56 | 15 | 12.0 | 22.0 | 0.00 | 0.00 | 0.00 | 62 | 1012.1 |
| 20260901050026 | 55 | 327 | 15.0 | 24.0 | 0.00 | 0.00 | 0.00 | 62 | 1012.1 |
| 20260901044534 | 56 | 353 | 13.0 | 21.0 | 0.00 | 0.00 | 0.00 | 63 | 1012.2 |
| 20260901041524 | 56 | 358 | 15.0 | 23.0 | 0.00 | 0.00 | 0.00 | 63 | 1012.2 |